Time,TemperatureF,DewpointF,PressureIn,WindDirection,WindDirectionDegrees,WindSpeedMPH,WindSpeedGustMPH,Humidity,HourlyPrecipIn,Conditions,Clouds,dailyrainin,SoftwareType,DateUTC
2013-09-16 00:06:00,0.0,0.0,0.00,East,90,3.1,5.4,0,0.00,,,-99.99,Homeseer,2013-09-16 04:06:00,
2013-09-16 00:16:00,0.0,0.0,0.00,ESE,112,5.4,5.6,0,0.00,,,-99.99,Homeseer,2013-09-16 04:16:00,
2013-09-16 00:26:00,0.0,0.0,0.00,SE,135,3.8,7.6,0,0.00,,,-99.99,Homeseer,2013-09-16 04:26:00,
2013-09-16 00:36:00,0.0,0.0,0.00,ESE,112,7.6,7.6,0,0.00,,,-99.99,Homeseer,2013-09-16 04:36:00,
2013-09-16 00:46:00,0.0,0.0,0.00,SE,135,6.9,9.8,0,0.00,,,-99.99,Homeseer,2013-09-16 04:46:00,
2013-09-16 00:56:00,0.0,0.0,0.00,ESE,112,5.8,9.0,0,0.00,,,-99.99,Homeseer,2013-09-16 04:56:00,
2013-09-16 01:06:00,0.0,0.0,0.00,ESE,112,5.8,5.8,0,0.00,,,-99.99,Homeseer,2013-09-16 05:06:00,
2013-09-16 01:16:00,0.0,0.0,0.00,ESE,112,4.5,8.5,0,0.00,,,-99.99,Homeseer,2013-09-16 05:16:00,
2013-09-16 01:26:00,0.0,0.0,0.00,SE,135,4.9,5.6,0,0.00,,,-99.99,Homeseer,2013-09-16 05:26:00,
2013-09-16 01:36:00,0.0,0.0,0.00,SE,135,4.0,4.0,0,0.00,,,-99.99,Homeseer,2013-09-16 05:36:00,
2013-09-16 01:46:00,82.2,76.2,0.00,SSE,157,4.0,4.0,78,0.00,,,-99.99,Homeseer,2013-09-16 05:46:00,
2013-09-16 01:56:00,82.2,76.5,0.00,SSE,157,4.3,4.3,79,0.00,,,-99.99,Homeseer,2013-09-16 05:56:00,
2013-09-16 02:06:00,82.2,76.5,0.00,SSE,157,4.9,4.9,79,0.00,,,-99.99,Homeseer,2013-09-16 06:06:00,
2013-09-16 02:16:00,82.2,76.8,0.00,SE,135,3.4,3.4,80,0.00,,,-99.99,Homeseer,2013-09-16 06:16:00,
2013-09-16 02:26:00,82.2,76.5,0.00,ESE,112,4.9,4.9,79,0.00,,,-99.99,Homeseer,2013-09-16 06:26:00,
2013-09-16 02:36:00,82.2,76.8,0.00,ESE,112,4.7,4.7,80,0.00,,,-99.99,Homeseer,2013-09-16 06:36:00,
2013-09-16 02:46:00,82.2,77.4,0.00,ESE,112,3.8,6.3,82,0.00,,,-99.99,Homeseer,2013-09-16 06:46:00,
2013-09-16 02:56:00,82.2,76.8,0.00,ESE,112,3.8,5.8,80,0.00,,,-99.99,Homeseer,2013-09-16 06:56:00,
2013-09-16 03:06:00,82.2,75.9,0.00,ESE,112,4.3,4.3,77,0.00,,,-99.99,Homeseer,2013-09-16 07:06:00,
2013-09-16 03:16:00,82.2,75.6,0.00,ESE,112,4.5,4.9,76,0.00,,,-99.99,Homeseer,2013-09-16 07:16:00,
2013-09-16 03:26:00,82.2,75.6,0.00,SSE,157,4.0,4.0,76,0.00,,,-99.99,Homeseer,2013-09-16 07:26:00,
2013-09-16 03:36:00,82.2,75.6,0.00,SE,135,4.0,7.6,76,0.00,,,-99.99,Homeseer,2013-09-16 07:36:00,
2013-09-16 03:46:00,82.2,77.1,0.00,ESE,112,4.9,4.9,81,0.00,,,-99.99,Homeseer,2013-09-16 07:46:00,
2013-09-16 03:56:00,82.4,77.3,0.00,ESE,112,3.8,3.8,81,0.00,,,-99.99,Homeseer,2013-09-16 07:56:00,
2013-09-16 04:06:00,82.4,77.3,0.00,SSE,157,4.3,4.7,81,0.00,,,-99.99,Homeseer,2013-09-16 08:06:00,
2013-09-16 04:16:00,82.4,77.9,0.00,SSE,157,4.0,4.0,83,0.00,,,-99.99,Homeseer,2013-09-16 08:16:00,
2013-09-16 04:26:00,82.2,77.7,0.00,ESE,112,4.3,6.3,83,0.00,,,-99.99,Homeseer,2013-09-16 08:26:00,
2013-09-16 04:36:00,82.2,78.2,0.00,ESE,112,3.4,4.0,85,0.00,,,-99.99,Homeseer,2013-09-16 08:36:00,
2013-09-16 04:46:00,82.2,78.5,0.00,SE,135,4.7,4.7,86,0.00,,,-99.99,Homeseer,2013-09-16 08:46:00,
2013-09-16 04:56:00,82.2,78.2,0.00,SSE,157,5.4,5.4,85,0.00,,,-99.99,Homeseer,2013-09-16 08:56:00,
2013-09-16 05:06:00,82.2,77.7,0.00,ESE,112,4.0,4.7,83,0.00,,,-99.99,Homeseer,2013-09-16 09:06:00,
2013-09-16 05:16:00,82.2,78.2,0.00,SSE,157,5.8,6.0,85,0.00,,,-99.99,Homeseer,2013-09-16 09:16:00,
2013-09-16 05:26:00,82.4,78.1,0.00,East,90,4.5,4.5,84,0.00,,,-99.99,Homeseer,2013-09-16 09:26:00,
2013-09-16 05:36:00,82.4,78.4,0.00,ESE,112,2.5,4.3,85,0.00,,,-99.99,Homeseer,2013-09-16 09:36:00,
2013-09-16 05:46:00,81.9,78.5,0.00,SE,135,4.0,5.4,87,0.00,,,-99.99,Homeseer,2013-09-16 09:46:00,
2013-09-16 05:56:00,81.9,78.8,0.00,SE,135,4.0,6.5,88,0.00,,,-99.99,Homeseer,2013-09-16 09:56:00,
2013-09-16 06:06:00,81.9,78.8,0.00,ESE,112,5.4,5.4,88,0.00,,,-99.99,Homeseer,2013-09-16 10:06:00,
2013-09-16 06:16:00,81.9,78.8,0.00,ESE,112,6.9,8.1,88,0.00,,,-99.99,Homeseer,2013-09-16 10:16:00,
2013-09-16 06:26:00,79.9,76.8,0.00,ENE,67,4.3,6.7,88,0.00,,,-99.99,Homeseer,2013-09-16 10:26:00,
2013-09-16 06:36:00,80.2,77.4,0.00,ESE,112,4.7,5.4,89,0.00,,,-99.99,Homeseer,2013-09-16 10:36:00,
2013-09-16 06:46:00,80.1,75.3,0.00,ESE,112,4.3,8.1,82,0.00,,,-99.99,Homeseer,2013-09-16 10:46:00,
2013-09-16 06:56:00,80.1,71.3,0.00,North,0,8.7,8.7,69,0.00,,,-99.99,Homeseer,2013-09-16 10:56:00,
2013-09-16 07:06:00,80.1,70.3,0.00,SE,135,4.9,5.8,66,0.00,,,-99.99,Homeseer,2013-09-16 11:06:00,
2013-09-16 07:16:00,80.1,70.3,0.00,ESE,112,7.8,7.8,66,0.00,,,-99.99,Homeseer,2013-09-16 11:16:00,
2013-09-16 07:26:00,80.8,70.9,0.00,North,0,5.8,5.8,66,0.00,,,-99.99,Homeseer,2013-09-16 11:26:00,
2013-09-16 07:36:00,81.0,70.4,0.00,ESE,112,5.8,5.8,64,0.00,,,-99.99,Homeseer,2013-09-16 11:36:00,
2013-09-16 07:46:00,81.0,70.4,0.00,SSE,157,6.5,6.5,64,0.00,,,-99.99,Homeseer,2013-09-16 11:46:00,
2013-09-16 07:56:00,81.0,70.4,0.00,ESE,112,4.7,12.5,64,0.00,,,-99.99,Homeseer,2013-09-16 11:56:00,
2013-09-16 08:06:00,81.0,70.4,0.00,SSE,157,6.5,9.8,64,0.00,,,-99.99,Homeseer,2013-09-16 12:06:00,
2013-09-16 08:16:00,81.0,70.4,0.00,ESE,112,6.5,6.5,64,0.00,,,-99.99,Homeseer,2013-09-16 12:16:00,
2013-09-16 08:26:00,81.0,70.4,0.00,SSE,157,4.9,6.0,64,0.00,,,-99.99,Homeseer,2013-09-16 12:26:00,
2013-09-16 08:36:00,0.0,0.0,0.00,SE,135,4.5,4.5,0,0.00,,,-99.99,Homeseer,2013-09-16 12:36:00,
2013-09-16 08:46:00,0.0,0.0,0.00,SE,135,4.7,5.8,0,0.00,,,-99.99,Homeseer,2013-09-16 12:46:00,
2013-09-16 08:56:00,0.0,0.0,0.00,ESE,112,4.9,6.5,0,0.00,,,-99.99,Homeseer,2013-09-16 12:56:00,
2013-09-16 09:06:00,0.0,0.0,0.00,South,180,4.3,4.3,0,0.00,,,-99.99,Homeseer,2013-09-16 13:06:00,
2013-09-16 09:16:00,0.0,0.0,0.00,North,0,4.7,4.7,0,0.00,,,-99.99,Homeseer,2013-09-16 13:16:00,
2013-09-16 09:26:00,0.0,0.0,0.00,ESE,112,4.3,9.2,0,0.00,,,-99.99,Homeseer,2013-09-16 13:26:00,
2013-09-16 09:36:00,0.0,0.0,0.00,WSW,247,4.5,6.5,0,0.00,,,-99.99,Homeseer,2013-09-16 13:36:00,
2013-09-16 09:46:00,0.0,0.0,0.00,SSE,157,7.2,7.2,0,0.00,,,-99.99,Homeseer,2013-09-16 13:46:00,
2013-09-16 09:56:00,0.0,0.0,0.00,SE,135,4.3,5.8,0,0.00,,,-99.99,Homeseer,2013-09-16 13:56:00,
2013-09-16 10:06:00,0.0,0.0,0.00,SE,135,6.9,6.9,0,0.00,,,-99.99,Homeseer,2013-09-16 14:06:00,
2013-09-16 10:16:00,0.0,0.0,0.00,SE,135,4.7,6.5,0,0.00,,,-99.99,Homeseer,2013-09-16 14:16:00,
2013-09-16 10:26:00,0.0,0.0,0.00,SE,135,5.8,7.2,0,0.00,,,-99.99,Homeseer,2013-09-16 14:26:00,
2013-09-16 10:36:00,0.0,0.0,0.00,ESE,112,5.4,5.4,0,0.00,,,-99.99,Homeseer,2013-09-16 14:36:00,
2013-09-16 10:46:00,0.0,0.0,0.00,SE,135,4.9,4.9,0,0.00,,,-99.99,Homeseer,2013-09-16 14:46:00,
2013-09-16 10:56:00,0.0,0.0,0.00,North,0,4.9,4.9,0,0.00,,,-99.99,Homeseer,2013-09-16 14:56:00,
2013-09-16 11:06:00,0.0,0.0,0.00,SSE,157,4.0,5.4,0,0.00,,,-99.99,Homeseer,2013-09-16 15:06:00,
2013-09-16 11:16:00,0.0,0.0,0.00,ESE,112,7.2,7.2,0,0.00,,,-99.99,Homeseer,2013-09-16 15:16:00,
2013-09-16 11:26:00,0.0,0.0,0.00,East,90,4.0,5.6,0,0.00,,,-99.99,Homeseer,2013-09-16 15:26:00,
2013-09-16 11:36:00,0.0,0.0,0.00,East,90,7.8,7.8,0,0.00,,,-99.99,Homeseer,2013-09-16 15:36:00,
2013-09-16 11:46:00,0.0,0.0,0.00,ESE,112,6.9,9.6,0,0.00,,,-99.99,Homeseer,2013-09-16 15:46:00,
2013-09-16 11:56:00,0.0,0.0,0.00,SSE,157,5.6,8.1,0,0.00,,,-99.99,Homeseer,2013-09-16 15:56:00,
2013-09-16 12:06:00,0.0,0.0,0.00,North,0,3.8,5.4,0,0.00,,,-99.99,Homeseer,2013-09-16 16:06:00,
2013-09-16 12:16:00,0.0,0.0,0.00,SSE,157,6.9,6.9,0,0.00,,,-99.99,Homeseer,2013-09-16 16:16:00,
2013-09-16 12:26:00,0.0,0.0,0.00,ESE,112,7.4,7.4,0,0.00,,,-99.99,Homeseer,2013-09-16 16:26:00,
2013-09-16 12:36:00,0.0,0.0,0.00,South,180,5.6,7.6,0,0.00,,,-99.99,Homeseer,2013-09-16 16:36:00,
2013-09-16 12:46:00,0.0,0.0,0.00,ESE,112,6.9,6.9,0,0.00,,,-99.99,Homeseer,2013-09-16 16:46:00,
2013-09-16 12:56:00,0.0,0.0,0.00,SSE,157,4.5,4.5,0,0.00,,,-99.99,Homeseer,2013-09-16 16:56:00,
2013-09-16 13:07:00,0.0,0.0,0.00,North,0,0.0,3.4,0,0.00,,,-99.99,Homeseer,2013-09-16 17:07:00,
2013-09-16 13:16:00,0.0,0.0,0.00,SSE,157,1.3,1.6,0,0.00,,,-99.99,Homeseer,2013-09-16 17:16:00,
2013-09-16 13:26:00,0.0,0.0,0.00,South,180,3.4,3.4,0,0.00,,,-99.99,Homeseer,2013-09-16 17:26:00,
2013-09-16 13:36:00,0.0,0.0,0.00,North,0,4.3,4.3,0,0.00,,,-99.99,Homeseer,2013-09-16 17:36:00,
2013-09-16 13:46:00,0.0,0.0,0.00,SSE,157,1.3,2.5,0,0.00,,,-99.99,Homeseer,2013-09-16 17:46:00,
2013-09-16 13:56:00,0.0,0.0,0.00,North,0,0.9,0.0,0,0.00,,,-99.99,Homeseer,2013-09-16 17:56:00,
2013-09-16 14:06:00,0.0,0.0,0.00,SSE,157,2.2,2.2,0,0.00,,,-99.99,Homeseer,2013-09-16 18:06:00,
2013-09-16 14:16:00,0.0,0.0,0.00,SE,135,2.0,2.0,0,0.00,,,-99.99,Homeseer,2013-09-16 18:16:00,
2013-09-16 14:26:00,0.0,0.0,0.00,SE,135,3.1,3.4,0,0.00,,,-99.99,Homeseer,2013-09-16 18:26:00,
2013-09-16 14:36:00,0.0,0.0,0.00,ESE,112,2.2,0.0,0,0.00,,,-99.99,Homeseer,2013-09-16 18:36:00,
2013-09-16 14:46:00,0.0,0.0,0.00,ESE,112,0.0,1.6,0,0.00,,,-99.99,Homeseer,2013-09-16 18:46:00,
2013-09-16 14:56:00,0.0,0.0,0.00,South,180,0.0,2.7,0,0.00,,,-99.99,Homeseer,2013-09-16 18:56:00,
2013-09-16 15:06:00,0.0,0.0,0.00,ESE,112,1.1,0.0,0,0.00,,,-99.99,Homeseer,2013-09-16 19:06:00,
2013-09-16 15:16:00,0.0,0.0,0.00,SE,135,0.0,0.0,0,0.00,,,-99.99,Homeseer,2013-09-16 19:16:00,
2013-09-16 15:36:00,0.0,0.0,0.00,ESE,112,2.7,4.0,0,0.00,,,-99.99,Homeseer,2013-09-16 19:36:00,
2013-09-16 15:46:00,0.0,0.0,0.00,ESE,112,2.5,2.5,0,0.00,,,-99.99,Homeseer,2013-09-16 19:46:00,
2013-09-16 15:56:00,0.0,0.0,0.00,East,90,2.7,3.1,0,0.00,,,-99.99,Homeseer,2013-09-16 19:56:00,
2013-09-16 16:06:00,0.0,0.0,0.00,ENE,67,2.2,2.7,0,0.00,,,-99.99,Homeseer,2013-09-16 20:06:00,
2013-09-16 16:16:00,0.0,0.0,0.00,ENE,67,2.7,2.7,0,0.00,,,-99.99,Homeseer,2013-09-16 20:16:00,
2013-09-16 16:26:00,0.0,0.0,0.00,ENE,67,5.4,5.4,0,0.00,,,-99.99,Homeseer,2013-09-16 20:26:00,
2013-09-16 16:36:00,0.0,0.0,0.00,NE,45,3.4,5.8,0,0.00,,,-99.99,Homeseer,2013-09-16 20:36:00,
2013-09-16 16:46:00,0.0,0.0,0.00,NNE,22,4.5,4.5,0,0.00,,,-99.99,Homeseer,2013-09-16 20:46:00,
2013-09-16 16:56:00,0.0,0.0,0.00,East,90,4.9,4.9,0,0.00,,,-99.99,Homeseer,2013-09-16 20:56:00,
2013-09-16 17:06:00,0.0,0.0,0.00,NNE,22,3.6,3.6,0,0.00,,,-99.99,Homeseer,2013-09-16 21:06:00,
2013-09-16 17:16:00,0.0,0.0,0.00,East,90,3.1,4.3,0,0.00,,,-99.99,Homeseer,2013-09-16 21:16:00,
2013-09-16 17:26:00,0.0,0.0,0.00,East,90,4.3,4.3,0,0.00,,,-99.99,Homeseer,2013-09-16 21:26:00,
2013-09-16 17:36:00,0.0,0.0,0.00,ESE,112,5.4,5.4,0,0.00,,,-99.99,Homeseer,2013-09-16 21:36:00,
2013-09-16 17:46:00,0.0,0.0,0.00,ESE,112,6.0,6.0,0,0.00,,,-99.99,Homeseer,2013-09-16 21:46:00,
2013-09-16 17:56:00,0.0,0.0,0.00,ESE,112,5.4,5.4,0,0.00,,,-99.99,Homeseer,2013-09-16 21:56:00,
2013-09-16 18:06:00,0.0,0.0,0.00,ENE,67,3.4,5.6,0,0.00,,,-99.99,Homeseer,2013-09-16 22:06:00,
2013-09-16 18:16:00,0.0,0.0,0.00,East,90,4.7,4.7,0,0.00,,,-99.99,Homeseer,2013-09-16 22:16:00,
2013-09-16 18:26:00,0.0,0.0,0.00,East,90,4.5,6.3,0,0.00,,,-99.99,Homeseer,2013-09-16 22:26:00,
2013-09-16 18:36:00,0.0,0.0,0.00,NNE,22,4.0,4.9,0,0.00,,,-99.99,Homeseer,2013-09-16 22:36:00,
2013-09-16 18:46:00,0.0,0.0,0.00,ENE,67,5.4,5.4,0,0.00,,,-99.99,Homeseer,2013-09-16 22:46:00,
2013-09-16 18:56:00,0.0,0.0,0.00,East,90,4.3,4.3,0,0.00,,,-99.99,Homeseer,2013-09-16 22:56:00,
2013-09-16 19:06:00,0.0,0.0,0.00,ESE,112,3.6,3.6,0,0.00,,,-99.99,Homeseer,2013-09-16 23:06:00,
2013-09-16 19:16:00,0.0,0.0,0.00,ESE,112,4.5,5.8,0,0.00,,,-99.99,Homeseer,2013-09-16 23:16:00,
2013-09-16 19:26:00,0.0,0.0,0.00,ESE,112,4.9,5.4,0,0.00,,,-99.99,Homeseer,2013-09-16 23:26:00,
2013-09-16 19:36:00,0.0,0.0,0.00,SSE,157,4.3,4.9,0,0.00,,,-99.99,Homeseer,2013-09-16 23:36:00,
2013-09-16 19:46:00,0.0,0.0,0.00,SSE,157,3.6,4.3,0,0.00,,,-99.99,Homeseer,2013-09-16 23:46:00,
2013-09-16 19:56:00,0.0,0.0,0.00,ESE,112,4.3,4.3,0,0.00,,,-99.99,Homeseer,2013-09-16 23:56:00,
2013-09-16 20:06:00,0.0,0.0,0.00,ENE,67,3.1,3.4,0,0.00,,,-99.99,Homeseer,2013-09-17 00:06:00,
2013-09-16 20:16:00,0.0,0.0,0.00,ESE,112,3.4,4.0,0,0.00,,,-99.99,Homeseer,2013-09-17 00:16:00,
2013-09-16 20:26:00,0.0,0.0,0.00,ESE,112,4.3,4.3,0,0.00,,,-99.99,Homeseer,2013-09-17 00:26:00,
2013-09-16 20:36:00,0.0,0.0,0.00,SE,135,5.8,5.8,0,0.00,,,-99.99,Homeseer,2013-09-17 00:36:00,
2013-09-16 20:46:00,0.0,0.0,0.00,ESE,112,4.5,4.5,0,0.00,,,-99.99,Homeseer,2013-09-17 00:46:00,
2013-09-16 20:56:00,0.0,0.0,0.00,SE,135,4.0,4.0,0,0.00,,,-99.99,Homeseer,2013-09-17 00:56:00,
2013-09-16 21:06:00,0.0,0.0,0.00,SSE,157,4.5,4.5,0,0.00,,,-99.99,Homeseer,2013-09-17 01:06:00,
2013-09-16 21:16:00,0.0,0.0,0.00,ESE,112,5.6,5.6,0,0.00,,,-99.99,Homeseer,2013-09-17 01:16:00,
2013-09-16 21:26:00,0.0,0.0,0.00,ESE,112,10.1,10.1,0,0.00,,,-99.99,Homeseer,2013-09-17 01:26:00,
2013-09-16 21:36:00,0.0,0.0,0.00,East,90,7.4,9.4,0,0.00,,,-99.99,Homeseer,2013-09-17 01:36:00,
2013-09-16 21:46:00,0.0,0.0,0.00,SE,135,6.7,6.7,0,0.00,,,-99.99,Homeseer,2013-09-17 01:46:00,
2013-09-16 21:56:00,80.8,75.1,0.00,SE,135,2.9,5.6,79,0.00,,,-99.99,Homeseer,2013-09-17 01:56:00,
2013-09-16 22:06:00,80.8,73.6,0.00,ESE,112,4.9,5.6,74,0.00,,,-99.99,Homeseer,2013-09-17 02:06:00,
2013-09-16 22:16:00,80.8,73.6,0.00,ESE,112,6.0,6.7,74,0.00,,,-99.99,Homeseer,2013-09-17 02:16:00,
2013-09-16 22:26:00,80.8,74.5,0.00,SE,135,5.4,5.4,77,0.00,,,-99.99,Homeseer,2013-09-17 02:26:00,
2013-09-16 22:36:00,80.8,74.5,0.00,East,90,5.4,8.1,77,0.00,,,-99.99,Homeseer,2013-09-17 02:36:00,
2013-09-16 22:46:00,80.8,74.5,0.00,SE,135,3.8,7.4,77,0.00,,,-99.99,Homeseer,2013-09-17 02:46:00,
2013-09-16 22:56:00,81.0,73.8,0.00,East,90,4.3,4.9,74,0.00,,,-99.99,Homeseer,2013-09-17 02:56:00,
2013-09-16 23:06:00,81.0,73.8,0.00,ENE,67,4.9,4.9,74,0.00,,,-99.99,Homeseer,2013-09-17 03:06:00,
2013-09-16 23:16:00,81.1,75.1,0.00,ESE,112,3.6,3.6,78,0.00,,,-99.99,Homeseer,2013-09-17 03:16:00,
2013-09-16 23:26:00,81.1,75.1,0.00,ESE,112,4.5,4.9,78,0.00,,,-99.99,Homeseer,2013-09-17 03:26:00,
2013-09-16 23:36:00,81.3,74.7,0.00,ESE,112,3.4,4.9,76,0.00,,,-99.99,Homeseer,2013-09-17 03:36:00,
2013-09-16 23:46:00,81.3,75.3,0.00,ESE,112,6.7,8.5,78,0.00,,,-99.99,Homeseer,2013-09-17 03:46:00,
2013-09-16 23:56:00,81.1,75.7,0.00,SE,135,7.8,7.8,80,0.00,,,-99.99,Homeseer,2013-09-17 03:56:00,